ARG1654 SABE-SAZS

Flight info

Callsign ARG1654
Flight time 1h 5m
Altitude 32000
Route PAL9 TORUL UT654 ORERA ORERA1Q
Aircraft B738/M-SDE2E3FGHIRWXY/LB1

Departure

Time 2026-05-07 01:47
Airport Aeroparque Jorge Newbery (SABE)

Arrival

Time 2026-05-07 02:52
Airport Teniente Luis Candelaria International Airport (SAZS)
Time Latitude Longitude Altitude Speed Heading
2026-05-07 01:29 -34.55865 -58.41144 24 ft 0 kts 41°
2026-05-07 01:36 -34.55881 -58.41161 28 ft 2 kts 42°
2026-05-07 01:37 -34.55893 -58.41175 28 ft 2 kts 21°
2026-05-07 01:37 -34.55901 -58.41175 27 ft 1 kts 310°
2026-05-07 01:37 -34.55902 -58.41174 27 ft 0 kts 310°
2026-05-07 01:41 -34.55900 -58.41176 24 ft 3 kts 310°
2026-05-07 01:42 -34.55872 -58.41220 24 ft 8 kts 307°
2026-05-07 01:42 -34.55868 -58.41277 26 ft 7 kts 233°
2026-05-07 01:42 -34.55911 -58.41300 29 ft 8 kts 169°
2026-05-07 01:42 -34.55975 -58.41216 26 ft 20 kts 127°
2026-05-07 01:43 -34.56073 -58.41064 26 ft 19 kts 127°
2026-05-07 01:43 -34.56150 -58.40932 27 ft 19 kts 119°
2026-05-07 01:43 -34.56188 -58.40804 26 ft 15 kts 119°
2026-05-07 01:43 -34.56244 -58.40702 27 ft 14 kts 124°
2026-05-07 01:44 -34.56298 -58.40605 28 ft 14 kts 127°
2026-05-07 01:44 -34.56362 -58.40527 26 ft 6 kts 137°
2026-05-07 01:44 -34.56389 -58.40496 27 ft 0 kts 137°
2026-05-07 01:45 -34.56390 -58.40495 27 ft 2 kts 138°
2026-05-07 01:45 -34.56460 -58.40421 24 ft 20 kts 138°
2026-05-07 01:46 -34.56516 -58.40383 27 ft 11 kts 191°
2026-05-07 01:46 -34.56555 -58.40449 26 ft 13 kts 307°
2026-05-07 01:46 -34.56373 -58.40775 28 ft 84 kts 304°
2026-05-07 01:46 -34.55912 -58.41602 28 ft 150 kts 303°
2026-05-07 01:47 -34.55270 -58.42806 379 ft 182 kts 302°
2026-05-07 01:47 -34.54558 -58.44169 989 ft 199 kts 307°
2026-05-07 01:47 -34.53427 -58.45061 1749 ft 199 kts 349°
2026-05-07 01:47 -34.52031 -58.45110 2386 ft 208 kts 360°
2026-05-07 01:48 -34.50632 -58.44454 2937 ft 222 kts 23°
2026-05-07 01:48 -34.49302 -58.43470 3562 ft 225 kts 21°
2026-05-07 01:48 -34.47958 -58.42501 4164 ft 231 kts 20°
2026-05-07 01:48 -34.46568 -58.41504 4805 ft 233 kts 20°
2026-05-07 01:49 -34.45157 -58.40495 5392 ft 237 kts 20°
2026-05-07 01:49 -34.43671 -58.39717 5934 ft 227 kts 356°
2026-05-07 01:49 -34.42196 -58.40063 6526 ft 214 kts 329°
2026-05-07 01:49 -34.40973 -58.41117 6935 ft 226 kts 311°
2026-05-07 01:50 -34.40155 -58.42795 7418 ft 240 kts 290°
2026-05-07 01:50 -34.40036 -58.44853 8114 ft 256 kts 265°
2026-05-07 01:50 -34.40764 -58.46884 8868 ft 274 kts 242°
2026-05-07 01:50 -34.42107 -58.48603 9647 ft 285 kts 230°
2026-05-07 01:51 -34.43660 -58.50173 10173 ft 300 kts 227°
2026-05-07 01:51 -34.45335 -58.51793 10316 ft 323 kts 226°
2026-05-07 01:51 -34.47152 -58.53545 10529 ft 343 kts 226°
2026-05-07 01:51 -34.49037 -58.55372 11012 ft 351 kts 226°
2026-05-07 01:52 -34.50950 -58.57240 11664 ft 354 kts 226°
2026-05-07 01:52 -34.52869 -58.59127 12315 ft 357 kts 226°
2026-05-07 01:52 -34.54797 -58.61039 12947 ft 360 kts 226°
2026-05-07 01:52 -34.56735 -58.62972 13564 ft 363 kts 226°
2026-05-07 01:53 -34.58698 -58.64940 14124 ft 366 kts 226°
2026-05-07 01:53 -34.60662 -58.66930 14684 ft 369 kts 227°
2026-05-07 01:53 -34.62639 -58.68937 15255 ft 372 kts 227°
2026-05-07 01:53 -34.64634 -58.70956 15819 ft 375 kts 227°
2026-05-07 01:54 -34.66653 -58.72996 16378 ft 379 kts 227°
2026-05-07 01:54 -34.68688 -58.75051 16942 ft 382 kts 227°
2026-05-07 01:54 -34.70746 -58.77131 17468 ft 385 kts 227°
2026-05-07 01:54 -34.72813 -58.79221 17990 ft 388 kts 227°
2026-05-07 01:55 -34.74901 -58.81334 18461 ft 391 kts 227°
2026-05-07 01:55 -34.76996 -58.83455 18973 ft 393 kts 227°
2026-05-07 01:55 -34.79100 -58.85587 19453 ft 395 kts 227°
2026-05-07 01:55 -34.81219 -58.87736 19938 ft 398 kts 227°
2026-05-07 01:56 -34.83346 -58.89894 20432 ft 400 kts 227°
2026-05-07 01:56 -34.85467 -58.92049 20918 ft 402 kts 227°
2026-05-07 01:56 -34.87621 -58.94239 21351 ft 406 kts 227°
2026-05-07 01:56 -34.89803 -58.96461 21713 ft 411 kts 227°
2026-05-07 01:57 -34.92007 -58.98705 22197 ft 413 kts 227°
2026-05-07 01:57 -34.94113 -59.00848 22644 ft 414 kts 227°
2026-05-07 01:57 -34.96328 -59.03112 23098 ft 416 kts 229°
2026-05-07 01:57 -34.98231 -59.05701 23374 ft 408 kts 243°
2026-05-07 01:58 -34.99775 -59.08598 23709 ft 407 kts 245°
2026-05-07 01:58 -35.01280 -59.11533 24094 ft 408 kts 245°
2026-05-07 01:58 -35.02763 -59.14456 24458 ft 410 kts 245°
2026-05-07 01:58 -35.04282 -59.17466 24812 ft 412 kts 245°
2026-05-07 01:59 -35.05785 -59.20457 25156 ft 414 kts 246°
2026-05-07 01:59 -35.07292 -59.23470 25487 ft 417 kts 246°
2026-05-07 01:59 -35.08781 -59.26456 25819 ft 418 kts 246°
2026-05-07 01:59 -35.10314 -59.29541 26159 ft 420 kts 246°
2026-05-07 02:00 -35.11833 -59.32603 26495 ft 423 kts 246°
2026-05-07 02:00 -35.13344 -59.35657 26723 ft 427 kts 246°
2026-05-07 02:00 -35.14880 -59.38772 27078 ft 427 kts 246°
2026-05-07 02:00 -35.16405 -59.41872 27576 ft 425 kts 246°
2026-05-07 02:01 -35.17920 -59.44959 28089 ft 422 kts 246°
2026-05-07 02:01 -35.19426 -59.48027 28514 ft 421 kts 246°
2026-05-07 02:01 -35.20935 -59.51102 28910 ft 421 kts 246°
2026-05-07 02:01 -35.22441 -59.54179 29333 ft 420 kts 246°
2026-05-07 02:02 -35.23940 -59.57243 29771 ft 419 kts 246°
2026-05-07 02:02 -35.25436 -59.60305 30155 ft 418 kts 246°
2026-05-07 02:02 -35.26926 -59.63344 30590 ft 415 kts 246°
2026-05-07 02:02 -35.28411 -59.66360 30958 ft 414 kts 246°
2026-05-07 02:03 -35.30127 -59.69231 31341 ft 423 kts 236°
2026-05-07 02:03 -35.32161 -59.71850 31637 ft 426 kts 234°
2026-05-07 02:03 -35.34246 -59.74459 31632 ft 431 kts 234°
2026-05-07 02:04 -35.38482 -59.79784 31633 ft 440 kts 235°
2026-05-07 02:04 -35.42741 -59.85228 31637 ft 449 kts 235°
2026-05-07 02:05 -35.47089 -59.90835 31676 ft 456 kts 236°
2026-05-07 02:05 -35.51457 -59.96487 31628 ft 456 kts 236°
2026-05-07 02:06 -35.55710 -60.02001 31620 ft 455 kts 236°
2026-05-07 02:06 -35.60059 -60.07651 31630 ft 455 kts 236°
2026-05-07 02:07 -35.64407 -60.13311 31640 ft 455 kts 236°
2026-05-07 02:07 -35.70925 -60.21816 31634 ft 456 kts 236°
2026-05-07 02:08 -35.75246 -60.27465 31631 ft 456 kts 236°
2026-05-07 02:08 -35.79601 -60.33167 31624 ft 456 kts 236°
2026-05-07 02:09 -35.83939 -60.38858 31630 ft 455 kts 236°
2026-05-07 02:09 -35.88274 -60.44554 31631 ft 455 kts 236°
2026-05-07 02:10 -35.92603 -60.50251 31638 ft 455 kts 237°
2026-05-07 02:10 -35.96917 -60.55939 31641 ft 453 kts 237°
2026-05-07 02:11 -36.03595 -60.64764 31622 ft 451 kts 237°
2026-05-07 02:11 -36.19376 -60.88225 31651 ft 433 kts 248°
2026-05-07 02:12 -36.32625 -61.12504 31659 ft 434 kts 246°
2026-05-07 02:12 -36.46347 -61.37277 31702 ft 435 kts 245°
2026-05-07 02:13 -36.60035 -61.62206 31653 ft 436 kts 245°
2026-05-07 02:13 -36.73681 -61.87241 31660 ft 436 kts 245°
2026-05-07 02:14 -36.87035 -62.11924 31675 ft 440 kts 244°
2026-05-07 02:14 -37.00674 -62.37322 31679 ft 442 kts 243°
2026-05-07 02:15 -37.14343 -62.62967 31686 ft 442 kts 243°
2026-05-07 02:15 -37.27990 -62.88775 31738 ft 445 kts 242°
2026-05-07 02:16 -37.41505 -63.14474 31733 ft 447 kts 241°
2026-05-07 02:16 -37.55216 -63.40685 31719 ft 448 kts 241°
2026-05-07 02:17 -37.68921 -63.67114 31751 ft 451 kts 240°
2026-05-07 02:17 -37.82824 -63.94154 31798 ft 470 kts 240°
2026-05-07 02:18 -37.96968 -64.21875 31745 ft 483 kts 239°
2026-05-07 02:18 -38.11328 -64.50280 31726 ft 475 kts 240°
2026-05-07 02:19 -38.25420 -64.78416 31759 ft 469 kts 240°
2026-05-07 02:19 -38.34853 -64.97433 31766 ft 476 kts 240°
2026-05-07 02:20 -38.40626 -65.09124 31758 ft 484 kts 241°
2026-05-07 02:20 -38.47810 -65.23711 31737 ft 483 kts 241°
2026-05-07 02:21 -38.54906 -65.38185 31754 ft 479 kts 241°
2026-05-07 02:21 -38.61963 -65.52653 31751 ft 479 kts 241°
2026-05-07 02:22 -38.69022 -65.67189 31760 ft 481 kts 242°
2026-05-07 02:22 -38.76080 -65.81790 31759 ft 482 kts 242°
2026-05-07 02:23 -38.88883 -66.08444 31766 ft 486 kts 242°
2026-05-07 02:23 -38.94209 -66.19604 31765 ft 487 kts 242°
2026-05-07 02:24 -38.97737 -66.27035 31791 ft 488 kts 242°
2026-05-07 02:24 -39.01251 -66.34456 31774 ft 490 kts 242°
2026-05-07 02:25 -39.04799 -66.41968 31769 ft 491 kts 242°
2026-05-07 02:25 -39.10331 -66.53706 31771 ft 491 kts 242°
2026-05-07 02:26 -39.16434 -66.66703 31777 ft 492 kts 242°
2026-05-07 02:26 -39.19941 -66.74212 31775 ft 492 kts 243°
2026-05-07 02:27 -39.23466 -66.81773 31767 ft 491 kts 243°
2026-05-07 02:27 -39.26984 -66.89331 31773 ft 491 kts 243°
2026-05-07 02:28 -39.30489 -66.96879 31778 ft 490 kts 242°
2026-05-07 02:28 -39.33914 -67.04272 31788 ft 489 kts 242°
2026-05-07 02:29 -39.44033 -67.26248 31818 ft 487 kts 242°
2026-05-07 02:29 -39.57795 -67.56319 31769 ft 472 kts 242°
2026-05-07 02:30 -39.66624 -67.75742 31643 ft 437 kts 243°
2026-05-07 02:30 -39.78231 -68.01538 31819 ft 423 kts 243°
2026-05-07 02:30 -39.84142 -68.14235 31905 ft 446 kts 239°
2026-05-07 02:31 -39.96464 -68.38183 31848 ft 449 kts 239°
2026-05-07 02:31 -40.02260 -68.49694 31821 ft 438 kts 239°
2026-05-07 02:31 -40.03915 -68.52999 31862 ft 432 kts 239°
2026-05-07 02:32 -40.11003 -68.67132 31932 ft 433 kts 238°
2026-05-07 02:32 -40.24069 -68.93363 30644 ft 418 kts 241°
2026-05-07 02:33 -40.30052 -69.05459 29171 ft 406 kts 241°
2026-05-07 02:33 -40.34363 -69.14206 28104 ft 395 kts 239°
2026-05-07 02:33 -40.37311 -69.20179 27471 ft 385 kts 239°
2026-05-07 02:33 -40.40178 -69.26001 26869 ft 376 kts 241°
2026-05-07 02:34 -40.42982 -69.31728 26207 ft 369 kts 239°
2026-05-07 02:34 -40.45738 -69.37351 25531 ft 363 kts 239°
2026-05-07 02:34 -40.48458 -69.42913 24870 ft 359 kts 239°
2026-05-07 02:34 -40.51138 -69.48405 24230 ft 354 kts 239°
2026-05-07 02:35 -40.53782 -69.53835 23579 ft 351 kts 240°
2026-05-07 02:35 -40.56392 -69.59203 22827 ft 347 kts 240°
2026-05-07 02:35 -40.58978 -69.64531 22135 ft 342 kts 239°
2026-05-07 02:35 -40.61507 -69.69744 21491 ft 335 kts 240°
2026-05-07 02:36 -40.63988 -69.74867 20880 ft 328 kts 240°
2026-05-07 02:36 -40.66415 -69.79892 20273 ft 322 kts 238°
2026-05-07 02:36 -40.71059 -69.89528 19094 ft 310 kts 238°
2026-05-07 02:36 -40.75610 -69.99005 17899 ft 301 kts 237°
2026-05-07 02:37 -40.79754 -70.07658 16723 ft 290 kts 236°
2026-05-07 02:37 -40.83978 -70.16503 15662 ft 278 kts 236°
2026-05-07 02:37 -40.88010 -70.24969 14617 ft 267 kts 236°
2026-05-07 02:37 -40.91879 -70.33114 13877 ft 251 kts 235°
2026-05-07 02:38 -40.93128 -70.35750 13858 ft 239 kts 235°
2026-05-07 02:38 -40.95437 -70.40627 13896 ft 220 kts 235°
2026-05-07 02:38 -40.98135 -70.46112 13833 ft 203 kts 227°
2026-05-07 02:38 -40.99942 -70.48931 14034 ft 228 kts 227°
2026-05-07 02:39 -41.02075 -70.52324 14088 ft 245 kts 229°
2026-05-07 02:39 -41.03146 -70.54058 14002 ft 240 kts 229°
2026-05-07 02:39 -41.04172 -70.55723 13948 ft 231 kts 229°
2026-05-07 02:39 -41.05174 -70.57350 13951 ft 229 kts 229°
2026-05-07 02:40 -41.06220 -70.59045 13976 ft 242 kts 229°
2026-05-07 02:40 -41.07275 -70.60757 13955 ft 237 kts 229°
2026-05-07 02:40 -41.08304 -70.62431 13955 ft 231 kts 229°
2026-05-07 02:40 -41.09304 -70.64058 13941 ft 224 kts 229°
2026-05-07 02:41 -41.12634 -70.69477 13909 ft 212 kts 228°
2026-05-07 02:41 -41.14102 -70.71868 13968 ft 217 kts 229°
2026-05-07 02:41 -41.15095 -70.73484 13989 ft 232 kts 229°
2026-05-07 02:41 -41.16125 -70.75162 13836 ft 236 kts 229°
2026-05-07 02:42 -41.17154 -70.76843 13318 ft 239 kts 229°
2026-05-07 02:42 -41.18204 -70.78558 12799 ft 240 kts 228°
2026-05-07 02:42 -41.19266 -70.80294 12230 ft 244 kts 228°
2026-05-07 02:42 -41.20338 -70.82046 11754 ft 245 kts 228°
2026-05-07 02:43 -41.21415 -70.83809 11243 ft 246 kts 228°
2026-05-07 02:43 -41.22491 -70.85572 10770 ft 246 kts 227°
2026-05-07 02:43 -41.23569 -70.87338 10294 ft 245 kts 227°
2026-05-07 02:43 -41.25786 -70.91959 9123 ft 256 kts 263°
2026-05-07 02:44 -41.24673 -70.96598 8319 ft 277 kts 299°
2026-05-07 02:44 -41.21482 -70.99503 7750 ft 290 kts 345°
2026-05-07 02:44 -41.17685 -70.98466 7302 ft 293 kts 33°
2026-05-07 02:44 -41.16247 -70.96626 7113 ft 290 kts 57°
2026-05-07 02:45 -41.15552 -70.94179 6890 ft 281 kts 85°
2026-05-07 02:45 -41.15214 -70.91668 6690 ft 273 kts 75°
2026-05-07 02:45 -41.14694 -70.89290 6472 ft 264 kts 76°
2026-05-07 02:45 -41.14218 -70.86985 6253 ft 254 kts 76°
2026-05-07 02:46 -41.13730 -70.84628 6194 ft 234 kts 76°
2026-05-07 02:46 -41.13311 -70.82620 6189 ft 221 kts 76°
2026-05-07 02:46 -41.13141 -70.80627 6163 ft 215 kts 109°
2026-05-07 02:46 -41.13896 -70.79091 6171 ft 193 kts 157°
2026-05-07 02:47 -41.15141 -70.78774 6201 ft 183 kts 190°
2026-05-07 02:47 -41.17934 -70.79987 6155 ft 177 kts 227°
2026-05-07 02:47 -41.20865 -70.84082 6165 ft 175 kts 225°
2026-05-07 02:47 -41.22883 -70.86670 6129 ft 168 kts 221°
2026-05-07 02:48 -41.23694 -70.87760 6130 ft 160 kts 241°
2026-05-07 02:48 -41.24091 -70.89167 6171 ft 165 kts 259°
2026-05-07 02:48 -41.23878 -70.90637 6180 ft 165 kts 290°
2026-05-07 02:48 -41.23384 -70.91996 6176 ft 163 kts 289°
2026-05-07 02:49 -41.22909 -70.93345 6179 ft 160 kts 289°
2026-05-07 02:49 -41.22448 -70.94671 6094 ft 162 kts 289°
2026-05-07 02:49 -41.21988 -70.95989 5852 ft 153 kts 290°
2026-05-07 02:49 -41.20565 -71.00200 5157 ft 146 kts 290°
2026-05-07 02:50 -41.18938 -71.04890 4359 ft 138 kts 290°
2026-05-07 02:50 -41.18450 -71.06215 4180 ft 139 kts 293°
2026-05-07 02:50 -41.18022 -71.07397 3962 ft 143 kts 292°
2026-05-07 02:50 -41.17608 -71.08583 3760 ft 139 kts 292°
2026-05-07 02:51 -41.17213 -71.09717 3583 ft 135 kts 292°
2026-05-07 02:51 -41.16816 -71.10841 3374 ft 134 kts 290°
2026-05-07 02:51 -41.16441 -71.11975 3199 ft 135 kts 290°
2026-05-07 02:51 -41.16043 -71.13113 2993 ft 136 kts 289°
2026-05-07 02:52 -41.15654 -71.14234 2822 ft 131 kts 290°
2026-05-07 02:52 -41.15294 -71.15268 2752 ft 113 kts 297°
2026-05-07 02:52 -41.15042 -71.15977 2752 ft 63 kts 294°
2026-05-07 02:52 -41.14930 -71.16272 2754 ft 13 kts 298°
2026-05-07 02:53 -41.14870 -71.16325 2754 ft 11 kts 12°
2026-05-07 02:53 -41.14840 -71.16307 2750 ft 5 kts 26°
2026-05-07 02:53 -41.14837 -71.16305 2750 ft 0 kts 26°
2026-05-07 02:53 -41.14830 -71.16301 2750 ft 5 kts 26°
2026-05-07 02:54 -41.14773 -71.16275 2748 ft 9 kts 351°
2026-05-07 02:54 -41.14718 -71.16274 2748 ft 0 kts 22°